Location: Newark
(13.7497°N, 100.4964°E)
Time: 20:17:42
(UTC+00:00)

OTV 5 (USA 277) - Visible Passes

Search period start: 23 October 2019 00:00
Search period end: 02 November 2019 00:00
Orbit: 310 x 324 km, 54.5° (Epoch: 17 October)

Date Brightness Start Highest point End Pass type
(mag) Time Alt. Az. Time Alt. Az. Time Alt. Az.
23 Oct ? 11:18:47 10° SE 11:19:07 10° ESE 11:19:27 10° ESE visible
23 Oct ? 22:30:34 10° NNW 22:33:16 65° ENE 22:35:56 10° SE visible
24 Oct ? 11:30:57 10° SSW 11:33:32 46° ESE 11:35:31 15° NE visible
24 Oct ? 22:45:33 10° WNW 22:47:43 21° WSW 22:49:51 10° S visible
25 Oct ? 11:45:38 10° WSW 11:48:01 28° NW 11:50:25 10° N visible
25 Oct ? 21:29:30 17° ESE 21:29:30 17° ESE 21:30:28 10° ESE visible
26 Oct ? 21:44:41 14° SSE 21:44:41 14° SSE 21:45:13 10° SSE visible
